Weather History for Key West, FL

Change the Weather History Date:

Tuesday, January 22, 2013

  Actual Average Record
Temperature  
Mean Temperature 70 °F 69 °F  
Max Temperature 73 °F 74 °F 87 °F (1877)
Min Temperature 67 °F 64 °F 48 °F (2009)
Degree Days  
Heating Degree Days 0 1  
Month to date heating degree days 1 22  
Since 1 July heating degree days 5 40  
Cooling Degree Days 5 5  
Month to date cooling degree days 220 112  
Year to date cooling degree days 220 112  
Growing Degree Days 20 (Base 50)    
Moisture  
Dew Point 60 °F    
Average Humidity 72    
Maximum Humidity 78    
Minimum Humidity 66    
Precipitation  
Precipitation 0.00 in 0.07 in 6.42 in (1983)
Month to date precipitation 0.29 1.46  
Year to date precipitation 0.29 1.46  
Snow  
Snow 0.00 in - - ()
Month to date snowfall 0.0  
Since 1 July snowfall 0.0  
Snow Depth 0.00 in    
Sea Level Pressure  
Sea Level Pressure 30.12 in    
Wind  
Wind Speed 12 mph (North)    
Max Wind Speed 17 mph    
Max Gust Speed 24 mph    
Visibility 10 miles    
Events      
T = Trace of Precipitation, MM = Missing Value Source: NWS Daily Summary

Daily Weather History Graph

Daily Weather History Graph

Search for Another Location

Airport:

Trip Planner

Search our weather history database for the weather conditions in past years. The results will help you decide how hot, cold, wet, or windy it might be!

Date:

Astronomy

Jan. 22, 2013 Rise Set
Actual Time 7:12 AM EST 6:05 PM EST
Civil Twilight 6:47 AM EST 6:29 PM EST
Nautical Twilight 6:20 AM EST 6:57 PM EST
Astronomical Twilight 5:52 AM EST 7:24 PM EST
Moon 2:31 PM EST (1/22) 3:28 AM EST (1/22)
Length of Visible Light 11h 41m
Length of Day
10h 53m
Waxing Gibbous, 82% of the Moon is Illuminated
Jan 22
Waxing Gibbous
Jan 26
Full
Feb 3
Last Quarter
Feb 10
New
Feb 17
First Quarter

Hourly Weather History & Observations

Time (EST) Temp. Dew Point Humidity Pressure Visibility Wind Dir Wind Speed Gust Speed Precip Events Conditions
12:01 AM 69.8 °F 62.6 °F 78% 30.08 in 10.0 mi NNW 10.4 mph - N/A   Mostly Cloudy
12:26 AM 69.8 °F 62.6 °F 78% 30.07 in 10.0 mi NNW 11.5 mph - N/A   Scattered Clouds
12:53 AM 70.0 °F 63.0 °F 78% 30.07 in 10.0 mi NNW 11.5 mph - N/A   Clear
1:53 AM 69.1 °F 62.1 °F 78% 30.06 in 10.0 mi NNW 13.8 mph - N/A   Clear
2:33 AM 69.8 °F 62.6 °F 78% 30.06 in 10.0 mi NNW 11.5 mph - N/A   Mostly Cloudy
2:45 AM 69.8 °F 62.6 °F 78% 30.05 in 10.0 mi NNW 10.4 mph - N/A   Scattered Clouds
2:53 AM 69.1 °F 62.1 °F 78% 30.05 in 10.0 mi NNW 12.7 mph - N/A   Scattered Clouds
3:06 AM 69.8 °F 62.6 °F 78% 30.06 in 10.0 mi NNW 12.7 mph - N/A   Mostly Cloudy
3:23 AM 68.0 °F 60.8 °F 78% 30.06 in 10.0 mi NNW 11.5 mph - N/A   Scattered Clouds
3:53 AM 68.0 °F 60.1 °F 76% 30.06 in 10.0 mi NNW 12.7 mph - N/A   Partly Cloudy
4:53 AM 68.0 °F 59.0 °F 73% 30.07 in 10.0 mi NNW 13.8 mph - N/A   Partly Cloudy
5:53 AM 68.0 °F 59.0 °F 73% 30.09 in 10.0 mi North 12.7 mph 17.3 mph N/A   Scattered Clouds
6:08 AM 68.0 °F 59.0 °F 73% 30.09 in 10.0 mi North 11.5 mph - N/A   Mostly Cloudy
6:24 AM 68.0 °F 59.0 °F 73% 30.10 in 10.0 mi North 10.4 mph - N/A   Scattered Clouds
6:53 AM 68.0 °F 59.0 °F 73% 30.10 in 10.0 mi North 9.2 mph 20.7 mph N/A   Partly Cloudy
7:53 AM 68.0 °F 59.0 °F 73% 30.12 in 10.0 mi North 8.1 mph - N/A   Clear
8:53 AM 69.1 °F 59.0 °F 70% 30.14 in 10.0 mi North 10.4 mph - N/A   Clear
9:53 AM 71.1 °F 60.1 °F 68% 30.16 in 10.0 mi North 11.5 mph 17.3 mph N/A   Partly Cloudy
10:53 AM 71.1 °F 61.0 °F 70% 30.17 in 10.0 mi North 10.4 mph - N/A   Partly Cloudy
11:53 AM 71.1 °F 60.1 °F 68% 30.16 in 10.0 mi North 11.5 mph - N/A   Partly Cloudy
12:53 PM 71.1 °F 60.1 °F 68% 30.14 in 10.0 mi North 13.8 mph - N/A   Clear
1:53 PM 71.1 °F 60.1 °F 68% 30.12 in 10.0 mi North 13.8 mph 19.6 mph N/A   Clear
2:53 PM 72.0 °F 60.1 °F 66% 30.12 in 10.0 mi North 12.7 mph - N/A   Clear
3:53 PM 72.0 °F 59.0 °F 64% 30.13 in 10.0 mi North 11.5 mph - N/A   Clear
4:53 PM 69.1 °F 59.0 °F 70% 30.14 in 10.0 mi North 12.7 mph - N/A   Clear
5:53 PM 69.1 °F 59.0 °F 70% 30.16 in 10.0 mi North 9.2 mph - N/A   Clear
6:53 PM 69.1 °F 59.0 °F 70% 30.16 in 10.0 mi North 9.2 mph - N/A   Clear
7:53 PM 69.1 °F 59.0 °F 70% 30.17 in 10.0 mi North 8.1 mph - N/A   Clear
8:53 PM 70.0 °F 60.1 °F 71% 30.19 in 10.0 mi NNE 10.4 mph - N/A   Clear
9:53 PM 70.0 °F 59.0 °F 68% 30.20 in 10.0 mi NE 11.5 mph 19.6 mph N/A   Clear
10:53 PM 69.1 °F 57.9 °F 68% 30.20 in 10.0 mi NNE 15.0 mph 19.6 mph N/A   Partly Cloudy
11:53 PM 68.0 °F 57.9 °F 70% 30.19 in 10.0 mi NNE 16.1 mph 23.0 mph N/A   Partly Cloudy